STARLINK-31845, 60129

Orbit data source: Space-Track

STARLINK-31845, 60129 is a payload satellite owned by SpaceX/Seattle (US) in LEO that was launched on Mon, 24 Jun 2024 UTC via an FALCON 9 launch vehicle from the Air Force Western Test Range (AFWTR). Payload-class satellites include a variety of spacecraft equipped with specific instruments for various scientific and technological missions. These include communications satellites like Starlink; space stations such as the ISS; scientific satellites like the Hubble; Earth observation satellites from companies like Planet Labs, Umbra, and HawkEye 360; GPS; miniature CubeSats for education and research; and military/defense satellites.

Loading next visibility...
Identifier
60129, 2024-118S
Orbit
LEO
Country
Flag of USUS
Related business
Manufacturer
SpaceX/Seattle
Mission
Operational Commercial Communications
Bus & Motor
STARLINK V2M, Unknown motor
Mass
730 kg wet, ~700 kg dry
Launch date (UTC)
2024-06-24 (1 year ago)
Launch vehicle
FALCON 9
Launch site
Air Force Western Test Range (AFWTR)
Object type
Payload
Rocket body
Debris
Shape & HBR
Box + 2 Pan, 17.7 m
Radar Cross Section
33.884 m², Large (>1 m²)

Expand to show TLE details & history
Last TLE update: 13 hours ago

TLE from 13 hours ago
0 STARLINK-31845
1 60129U 24118S   25293.50405222 -.00000342  00000-0  58023-6 0  9999
2 60129  53.1598 315.7087 0001165  95.1281 264.9853 15.30182568 74266
Epoch: 2025-10-20T12:05Z
TLE epoch observation values (Epoch: 2025-10-20T12:05:50.111Z)
Latitude
-0.00002°
Longitude
105.04447°
Altitude
476.237 km
Speed
7.629 km/s
True Right ascension
21h 02m 50s
True Declination
0° 00' 00"
Sunlit
Object was in daylight at epoch
Visualization orbit readout
Latitude
Unknown
Longitude
Unknown
Altitude
Unknown
Speed
Unknown
Apparent Right ascension
Unknown
Apparent Declination
Unknown
Sunlit
N/A
Visualization observer readout
Local Sidereal Time
19:44:33
Azimuth
Unknown
Elevation
Unknown
Doppler factor
Unknown
Orbital elements
Apogee altitude
476.322 km
Perigee altitude
474.725 km
Semi-major axis
6,853.661 km
Eccentricity
0.00012
Inclination
53.1598°
RAAN
315.7087°
Arg. of periapsis
95.1281°
True anomaly
264.972°
Mean anomaly
264.9853°
Eccentric anomaly
264.97865°
Mean motion
3.82525 °/min
Orbital period
94.11 mins
BSTAR
5.8023e-7
Loading maneuver chart data...
Computing Atmospheric mass density...
Loading historical data...
Loading historical data...
Loading historical data...
Loading historical data...
Loading historical data...
Loading historical data...
Loading historical data...

Documentation

Showing up to 5 results
|